Regional Weather Roundup
Issued by NWS

Home | Current Version | Previous Version | Graphics & Text | Print | Product List | Glossary On
Versions: 1 2 3 4 5 6 7 8 9 10 11 12 13 14 15 16 17 18 19 20 21 22 23 24 25 26 27 28 29 30 31 32 33 34 35 36 37 38 39 40 41 42 43 44 45 46 47 48 49 50
000
ASUS43 KTOP 191859
RWRKS

WEATHER ROUNDUP FOR KANSAS
NATIONAL WEATHER SERVICE GOODLAND KS
200 PM CDT THU APR 19 2018

NOTE:  "FAIR" INDICATES FEW OR NO CLOUDS BELOW 12,000 FEET WITH NO
SIGNIFICANT WEATHER AND/OR OBSTRUCTIONS TO VISIBILITY.

KSZ001>006-013>018-027>032-041>047-192000-
NORTHWEST KANSAS

CITY           SKY/WX    TMP DP  RH WIND       PRES   REMARKS
GOODLAND       SUNNY     59  28  30 SE18G31   30.30F
HAYS           SUNNY     55  25  31 E7        30.41F
HILL CITY      SUNNY     56  29  35 SE9       30.40F
RUSSELL        SUNNY     57  29  34 E13G20    30.40F
$$

KSZ061>065-074>080-084>089-192000-
SOUTHWEST KANSAS

CITY           SKY/WX    TMP DP  RH WIND       PRES   REMARKS
DODGE CITY     SUNNY     59  29  31 VRB5G18   30.38F
GARDEN CITY    SUNNY     59  28  30 SE14G23   30.36F
GREAT BEND     SUNNY     55  29  36 NE10      30.42F
LIBERAL        MOSUNNY   61  27  27 S13G21    30.36F
$$

KSZ066>073-081>083-090>101-192000-
SOUTHEAST KANSAS

CITY           SKY/WX    TMP DP  RH WIND       PRES   REMARKS
CHANUTE        SUNNY     55  27  34 NE13      30.44F
COFFEYVILLE    SUNNY     57  30  35 N10G17    30.44F
HUTCHINSON     SUNNY     56  28  34 NE13G21   30.42F
MEDICINE LODGE   N/A     59  28  30 N8        30.41F
NEWTON         SUNNY     53  27  36 N12       30.43F
PARSONS        SUNNY     56  27  32 VRB6      30.45F
WICHITA INTL   MOSUNNY   57  28  33 E14G22    30.42F
WICHITA JABRA  SUNNY     57  27  31 NE15G21   30.42F
WICHITA MCCONL SUNNY     56  26  31 NE14      30.41F
WINFIELD       SUNNY     57  31  37 NE15      30.43F
$$

KSZ007>012-019>026-033>040-048>060-102>105-192000-
NORTHEAST KANSAS

CITY           SKY/WX    TMP DP  RH WIND       PRES   REMARKS
CONCORDIA      SUNNY     54  27  35 VRB5      30.44F
EMPORIA        SUNNY     54  28  36 NE10G17   30.45F
LAWRENCE       SUNNY     56  30  37 VRB7      30.46F
MANHATTAN      SUNNY     54  28  36 NE6       30.46F
OLATHE IND     SUNNY     54  31  41 N8        30.46F
OLATHE EXE     SUNNY     52  30  43 NE10      30.45S
SALINA         SUNNY     56  30  37 N8        30.44F
TOPEKA BILLARD SUNNY     56  31  38 MISG      30.46F
TOPEKA FORBES  SUNNY     55  30  38 N9G17     30.45F
$$



USA.gov is the U.S. government's official web portal to all federal, state and local government web resources and services.